Douglas, WY

8:40 AM MDT on April 28, 2017 (GMT -0600)
Ridgewater Rd | | Change Station
Active Advisory: Winter Storm Warning

Elev 4885 ft 42.74 °N, 105.43 °W | Updated 7 seconds ago

Heavy Snow
Heavy Snow Freezing Fog
31.6 °F
Feels Like 32 °F
N
0.0
Wind Variable Wind from NNW
Gusts 6.9 mph

Today
High -- | Low -- °F
--% Chance of Precip.
Yesterday
High -- | Low -- °F
Precip. -- in
Pressure 29.73 in
Visibility 0.2 miles
Clouds
Windchill 32 °F
Dew Point 31 °F
Humidity 99%
Rainfall 0.00 in
Snow Depth Not available.
5:59 AM 7:59 PM
Waxing Crescent, 7% visible
SPECI KDGW 281413Z AUTO 07011KT 1/4SM +SN FZFG VV008 M01/M02 A2973 RMK AO2 P0001 T10111017
Pressure 29.73 in
Visibility 0.2 miles
Clouds
Windchill 32 °F
Dew Point 31 °F
Humidity 99%
Rainfall 0.00 in
Snow Depth Not available.
5:59 AM 7:59 PM
Waxing Crescent, 7% visible
SPECI KDGW 281413Z AUTO 07011KT 1/4SM +SN FZFG VV008 M01/M02 A2973 RMK AO2 P0001 T10111017

Get Your Daily Forecast Email!

Thanks for signing up!

Be on the lookout for a verification email in your inbox.

You'll start receiving severe weather alerts in your inbox..

×

10-Day Weather Forecast

Almanac

Astronomy

Apr. 28, 2017 Rise Set
Actual Time
Civil Twilight
Nautical Twilight
Astronomical Twilight
Moon
Length of Visible Light
Length of Day
Tomorrow will be .
, % of the Moon is Illuminated

Today's Extremes

State Highs State Lows

Community

WunderPhotos

WunderBlog® & News

Nearby

Air Quality

  Air Quality AQ Index Pollutant
Not available.

Snow Depth

Station Depth Elevation

Earthquake Activity

City Distance Mag. Time & Date
Minimum magnitude displayed is 2.5.

Coastal Water Temperatures

Place Temperature

Stations

Nearby Weather Stations

Station Location Temp. Windchill Dew Point Humidity Wind Precip. Elev Updated Type
                   

Watches & Warnings

Winter Storm Warning
Issued: 3:36 AM MDT Apr. 28, 2017 – National Weather Service

... Winter Storm Warning remains in effect until 6 PM MDT this
evening...

* timing... snow developing early this morning, with moderate to
heavy snow at times through Friday afternoon.

* Total snow accumulations... 4 to 10 inches, heaviest along
ridges.

* Winds/visibility..east to northeast winds 10 to 20 mph with
higher gusts. Visibilities will be reduced to a half mile or
less at times in snow and blowing snow.

* Impacts... travel will be extremely hazardous due to snow
covered roads and low visibilities. Heavy snow on fully leafed
trees could cause tree damage, with the possibility of tree
branches falling onto power lines and causing power outages.

Precautionary/preparedness actions...

A Winter Storm Warning for heavy snow means severe winter weather
conditions are expected or occurring. Significant amounts of snow
are forecast that will make travel dangerous. Only travel in an
emergency. If you must travel... keep an extra flashlight... food...
and water in your vehicle in case of an emergency.